www.pogodaiklimat.ru

Погода и климат >> Архив погоды >> Россия >> Томская область >> Тегульдет


ПОГОДА в Тегульдете

  • Прогноз погоды в Тегульдете
  • Монитор погоды в Тегульдете

АРХИВ ПОГОДЫ в Тегульдете

Время (UTC), дата Ветер
(напр.,м/с)
 
Видим.   Явления Облачность Т
(С)
Тd
(С)
f
(%)
Тe
(С)
Тes
(С)
Комфортность P
(гПа)
Po
(гПа)
Тmin
(С)
Tmax
(С)
R
(мм)
R24
(мм)
S
(см)
00 18.03 ЮЗ 1 10 км ясно -15.3 -17.0 87 -18 -18 1030.1 1011.9 -16.7 35
03 18.03 З 1 10 км 10 баллов -8.1 -10.6 82 -10 -10 1033.4 1016.0
06 18.03 Ю 2 10 км 8/0
[Ci fib]
-1.7 -8.0 62 -5 -3 1031.7 1014.7
09 18.03 ЮЗ 2 10 км 10 баллов -0.7 -7.5 60 -4 -4 1031.6 1014.7
12 18.03 ЮЗ 4
{7}
10 км 10/0
[As op]
-3.7 -9.0 67 -10 -10 1031.8 1014.4 -0.1
15 18.03 З 2 4000 м слаб. снег 10 баллов -5.3 -8.4 79 -9 -9 1033.2 1016.0
18 18.03 ЮЗ 2 10 км {снег} 10/0
[Ac und]
-5.4 -7.1 88 -10 -10 1033.2 1016.0
21 18.03 Ю 1 10 км 10 баллов -6.4 -7.8 90 -9 -9 1030.5 1013.3
00 19.03 ЮЗ 1
{7}
10 км 10/0
[Cs]
-8.9 -9.9 92 -9.4
03 19.03 З 2 4000 м слаб. снег 10/0 300 м
[As op]
-4.8 -6.6 87 -9 -9 1029.1 1012.0
06 19.03 ЮЗ 2 4000 м слаб. снег 10 баллов -2.3 -6.1 75 -6 -6 1019.5 1002.7
09 19.03 З 3 10 км в посл. час снег 10/10 600 м
[Sc]
-2.1 -6.6 71 -7 -7 1028.9 1012.0
12 19.03 З 2
{6}
10 км {снег} 10/10 600 м
[Sc]
-2.9 -8.6 65 -7 -7 1028.7 1011.3 -1.9 1
15 19.03 штиль 0 10 км 9/9 600 м
[Sc]
-9.6 -11.5 86 -10 -10 1030.8 1013.3
18 19.03 З 1 10 км 10 баллов -4.7 -8.3 76 -7 -7 1031.9 1014.7
21 19.03 З 2 4000 м 10/10 600 м
[Sc]
-4.8 -7.9 79 -9 -9 1033.2 1016.0
00 20.03 З 2
{5}
10 км 10/10 600 м
[Sc]
-3.5 -4.0 96 -8 -8 1033.0 1015.7 -4.5
03 20.03 З 3 10 км 10 баллов -3.5 -8.2 70 -9 -9 1034.4 1017.3
06 20.03 З 2 10 км 10 баллов -2.1 -9.2 58 -6 -6 1034.3 1017.3
09 20.03 З 2 10 км 10 баллов -2.1 -8.2 63 -6 -6 1034.3 1017.3
12 20.03 ЮЗ 2
{6}
10 км 10/0
[As op]
-2.3 -8.5 62 -6 -6 1033.2 1015.9 -1.7
15 20.03 ЮЗ 1 10 км 10 баллов -2.7 -9.0 62 -4 -4 1034.4 1017.3
18 20.03 штиль 0 10 км 7 баллов -4.8 -9.4 70 -6 -6 1033.2 1016.0
21 20.03 Ю 1 10 км 4 балла -10.8 -12.1 90 -13 -13 1033.6 1016.0
00 21.03 Ю 1
{4}
10 км 10/0
[As op]
-5.3 -7.7 83 -8 -8 1031.4 1013.9 -11.0 35
03 21.03 Ю 2 10 км 7 баллов -2.0 -7.7 65 -6 -5 1033.0 1016.0
06 21.03 ЮЗ 4 10 км 2 балла +3.3 -8.4 42 -1 +3 1031.4 1014.7
09 21.03 ЮЗ 3 10 км 2 балла +4.9 -14.5 23 +3 +5 1029.8 1013.3
12 21.03 ЮЗ 2
{8}
10 км 3/0
[Ci fib]
+2.6 -12.8 31 +1 +1 1028.8 1011.5 +5.0
15 21.03 ЮЗ 1 10 км 2 балла -0.2 -11.9 41 -1 -1 1028.8 1012.0
18 21.03 ЮЗ 2 10 км ясно -1.2 -9.5 53 -4 -4 1027.6 1010.7
21 21.03 Ю 1 10 км ясно -4.1 -8.6 71 -6 -6 1026.3 1009.3
00 22.03 Ю 1
{4}
10 км 3/0
[Ci fib]
-4.9 -9.2 72 -7 -7 1024.0 1006.6 -4.9 35
03 22.03 ЮЗ 2 10 км 7 баллов -0.5 -8.2 56 -4 -3 1023.5 1006.7 -4.9
06 22.03 ЮЗ 3 10 км 7 баллов +4.1 -8.9 38 +1 +3 1020.4 1004.0
09 22.03 З 4
{11}
10 км 7 баллов +5.7 -9.3 33 +3 +3 1019.0 1002.7
12 22.03 З 3
{11}
10 км 8/0
[Cs]
+4.5 -9.3 36 +2 +2 1017.7 1001.3 +6.2
15 22.03 З 2 10 км ясно +2.2 -7.7 48 -0 -0 1019.2 1002.7
18 22.03 ЮЗ 1 10 км 7 баллов -2.1 -6.6 71 -4 -4 1019.5 1002.7
21 22.03 штиль 0 10 км 2 балла -3.8 -7.1 78 -5 -5 1020.9 1004.0
00 23.03 штиль 0
{8}
10 км 8/0
[Ac trans]
-6.0 -7.9 86 -7 -7 1020.4 1003.0 -6.4 35
03 23.03 ЮВ 1 10 км 7 баллов -0.3 -7.8 57 -2 -1 1022.0 1005.3
06 23.03 З 2 10 км 10 баллов +3.5 -7.0 46 +1 +1 1020.5 1004.0
09 23.03 штиль 0 10 км 4 балла +5.9 -7.7 37 +6 +9 1019.0 1002.7
12 23.03 штиль 0
{5}
10 км 3/0
[Ac lent]
+2.7 -5.5 55 +2 +2 1020.3 1003.5 +6.5
15 23.03 штиль 0 10 км ясно -3.7 -6.5 81 -5 -5 1019.6 1002.7
18 23.03 штиль 0 10 км 4 балла -5.7 -7.5 87 -7 -7 1019.7 1002.7
21 23.03 штиль 0 10 км 7 баллов -6.8 -8.0 91 -8 -8 1018.4 1001.3
00 24.03 штиль 0
{2}
10 км 10/0
[Ac und]
-4.7 -6.5 87 -6 -6 1016.8 999.6 -6.9 32
03 24.03 штиль 0 10 км 10 баллов +3.4 -4.5 56 +3 +3 1016.4 1000.0
06 24.03 Ю 3 10 баллов 60 998.7
09 24.03 З 3 10 баллов 51 998.7
12 24.03 штиль 0
{6}
10 км 10/0
[As op]
+2.8 -3.0 66 +2 +2 1015.8 999.1 +4.9
15 24.03 штиль 0 10 баллов 81 1000.0
18 24.03 СЗ 1 10 баллов 86 1000.0
21 24.03 СЗ 1 9 баллов 75 1001.3

 

Местоположение метеостанции Тегульдет (Томская область, Россия): широта 57.30 долгота 88.15 высота над уровнем моря 132 м.

В архиве по умолчанию представлена погода в Тегульдете за последнюю неделю. Архивные данные за месяц целиком и за предыдущие месяцы, начиная с января 2011 года, Вы можете получить, выбрав интересующий диапазон дат из раскрывающегося списка и нажав кнопку "Ввод!".


*Определитесь, кто Вы:
робот инопланетянин человек

Внимание! Время в таблицах - всемирное. Для получения местного времени необходимо прибавить поправку, которая равна 7 ч.

Смотрите также архив погоды в соседних городах и на ближайших метеорологических станциях:

Погода в Тюхтете (Красноярский край, Россия) (111 км)
Погода в Первомайском (Томская область, Россия) (119 км)
Погода в Мариинске (Кемеровская область, Россия) (128 км)
Погода в Тяжине (Кемеровская область, Россия) (133 км)
Погода в Лосиноборске (Красноярский край, Россия) (145 км)
Погода в Новобирилюссах (Красноярский край, Россия) (145 км)
Погода в Боготоле (Красноярский край, Россия) (148 км)
Погода в Яе (Кемеровская область, Россия) (160 км)
Погода в Большом Улуе (Красноярский край, Россия) (162 км)
Погода в Степановке (Томская область, Россия) (170 км)

Пояснения к столбцам:

Ветер - указаны скорость ветра в м/с - средняя за 10 мин, порывы в срок и между сроками (в фигурных скобках) и направление, откуда дует ветер: С - северный, СВ - северо-восточный, В - восточный, ЮВ - юго-восточный, Ю - южный, ЮЗ - юго-западный, З - западный, СЗ - северо-западный.
Видимость - горизонтальная дальность видимости в метрах или километрах. При видимости от 1 до 10 км при отсутствии осадков обычно наблюдается дымка, при ухудшении видимости до 1 км и менее - туман. В сухую погоду видимость может ухудшаться дымом, пылью или мглою.
Явления - указаны атмосферные явления, наблюдавшиеся в срок или в последний час перед сроком; фигурными скобками обозначены явления, наблюдавшиеся между сроками (за 1-3 часа до срока); квадратными скобками обозначены град или гололедные отложения с указанием их диаметра в мм.
Облачность - указаны через наклонную черту общая и нижняя облачность в баллах и высота нижней границы облаков в метрах; квадратными скобками обозначены формы облаков: Ci - перистые, Cs - перисто-слоистые, Cc - перисто-кучевые, Ac - высококучевые, As - высокослоистые, Sc - слоисто-кучевые, Ns - слоисто-дождевые, Cu - кучевые, Cb - кучево-дождевые. Подробнее классификацию облаков см. в Атласе облаков (PDF).
T - Температура воздуха - температура, измеренная на высоте 2 м над землей.
Td - Температура точки росы - температура, при понижении до которой содержащийся в воздухе водяной пар достигнет насыщения.
f - Относительная влажность воздуха - влажноcть воздуха, измеренная на высоте 2 м над землей.
Te - Эффективная температура - температура, которую ощущает одетый по сезону человек в тени. Характеристика душности погоды. При расчете учитывается влияние влажности воздуха и скорости ветра на теплоощущения человека.
Tes - Эффективная температура на солнце - температура, которую ощущает человек, с поправкой на солнечный нагрев. Характеристика знойности погоды. Зависит от высоты солнца над горизонтом, облачности и скорости ветра. Ночью, в пасмурную погоду, а также при ветре 12 м/с и более поправка равна нулю.
P - Атмосферное давление - приведенное к уровню моря атмосферное давление.
Po - Атмосферное давление - измеренное на уровне метеостанции атмосферное давление.
Tmin - Минимальная температура - минимум температуры воздуха на высоте 2 м над землей.
Tmax - Максимальная температура - максимум температуры воздуха на высоте 2 м над землей.
R - Количество осадков - Количество выпавших осадков за период времени, мм. При наведении курсора мыши на число - период времени, за который выпало указанное количество осадков.
R24 - Количество осадков - Количество выпавших осадков за 24 часа, мм.
S - Снежный покров - Высота снежного покрова, см. При наведении курсора мыши на число - состояние снежного покрова и степень покрытия местности в баллах.